Location: Azul
(36.7830°S, 59.8500°W)
Time: 10:12:01
(UTC-03:00)

UKube-1 - Pass Details

Date: 23 October 2021
Orbit: 611 x 617 km, 98.4° (Epoch: 07 December)

Event Time Altitude Azimuth Distance (km) Brightness Sun altitude
Exits shadow 21:20:23 30° 343° (NNW) 1,113 ? -21.9°
Maximum altitude 21:22:15 54° 281° (W) 761 ? -22.2°
Drops below altitude 10° 21:26:32 10° 203° (SSW) 2,006 ? -22.9°
Sets 21:28:47 0° 198° (SSW) 2,919 ? -23.3°
